Vertical_Velocity
-2 -2 -3 -3 -4 -4 -3 -3 -3 -4 -4 -5 -5 -5 -5 -4 -3 -3 -2 -2 -3 -3 -4 -3 -2 -2 -2 -1 -1 -1 -1 -1 -0 0 0 0 -0 -0 -0 -0 -1 -1 -2 -2 -2 -2 -1 -1 -1 -1 -1 -1 -1 -2 -2 -2 -2 -2 -2 -2 -2 -2 -1 -1 -0 0 -0 -0 -1
-1 -1 -1 -2 -2 -2 -2 -2 -2 -2 -2 -3 -3 -4 -4 -4 -3 -3 -2 -2 -2 -3 -3 -3 -2 -2 -2 -2 -1 -1 -1 -2 -1 -0 0 1 1 0 0 -0 -0 -1 -1 -1 -2 -2 -1 -1 -1 -0 -0 -1 -1 -1 -2 -3 -2 -2 -2 -2 -3 -2 -1 -0 0 0 0 0 -1
-1 -1 -0 -0 -1 -1 -2 -2 -1 -1 -1 -1 -1 -2 -2 -3 -3 -3 -2 -2 -2 -2 -3 -3 -3 -2 -1 -2 -1 -1 -1 -1 -2 -1 -1 0 1 1 1 0 0 0 -0 -1 -1 -1 -1 -1 -0 -0 -0 -0 -1 -1 -2 -2 -3 -2 -2 -3 -2 -2 -1 -0 0 0 0 0 -1
-0 -1 -1 -0 -0 -1 -1 -1 -1 -1 -1 -0 -0 -1 -1 -2 -2 -2 -2 -2 -2 -2 -2 -2 -3 -2 -2 -1 -1 -1 -0 -0 -1 -1 -1 -1 0 1 1 1 0 0 0 0 -0 -1 -1 -0 -0 0 0 -0 -1 -1 -1 -2 -2 -2 -3 -3 -2 -1 -1 -0 -0 0 0 1 -0
0 -0 -0 -0 -0 -0 -1 -1 -1 -1 -1 -0 -0 -1 -1 -1 -2 -2 -2 -2 -1 -1 -1 -1 -2 -2 -2 -1 -1 -1 -1 0 0 -1 -1 -1 0 1 1 1 1 1 1 1 1 0 0 0 0 1 1 0 0 -0 -1 -2 -2 -2 -2 -2 -2 -2 -1 -1 -0 0 0 1 1
-1 -1 -1 -0 -0 -0 -0 0 0 0 -0 -0 -0 -1 -1 -1 -1 -1 -1 -1 -1 -0 -0 -0 -1 -1 -1 -1 -1 -1 -1 -0 0 0 -0 -1 0 1 1 2 1 1 1 1 1 1 1 1 1 2 2 1 1 0 -1 -2 -2 -3 -3 -3 -2 -2 -1 -1 -0 0 1 2 1
-2 -2 -2 -1 -0 -0 0 0 0 0 -0 -0 -0 -0 -0 0 0 1 1 0 -0 -0 -0 -0 -1 -1 -1 -1 -1 -1 -1 -1 0 1 1 0 1 1 1 1 2 2 2 2 2 2 2 2 3 4 4 3 1 1 0 -1 -2 -3 -4 -4 -3 -2 -1 -1 -0 1 1 2 1
-1 -1 -1 -1 -1 -0 0 -0 -0 -0 -0 -0 0 0 0 0 1 1 1 1 1 0 -0 -0 -0 -1 -1 -1 -1 -1 -1 -1 -0 1 1 1 1 1 2 2 2 2 2 2 2 3 3 4 5 5 5 4 3 2 2 1 -2 -4 -6 -5 -2 -1 -0 -0 -0 0 1 1 2
-1 -1 -0 -0 -0 -0 -0 -0 -0 0 0 1 1 1 1 1 1 1 1 1 1 0 -0 -1 -1 -1 -1 -1 -1 -1 -1 -1 -0 0 1 2 1 1 1 1 1 2 3 3 3 4 5 6 6 6 6 4 2 1 -0 -1 -4 -6 -6 -4 -1 1 1 1 0 0 0 1 1
-1 -1 -1 -0 -0 -0 0 1 1 1 1 2 2 2 2 1 1 1 1 1 0 -0 -1 -2 -2 -2 -2 -1 -1 -1 -1 -1 -1 -0 1 2 1 1 -0 -0 1 2 3 3 4 5 7 7 6 6 4 2 -0 -2 -3 -4 -7 -7 -5 -2 0 2 2 2 2 1 1 1 -1
-1 -1 -1 -1 -0 -0 0 1 2 2 2 2 2 2 1 1 1 1 0 -0 -1 -2 -2 -3 -3 -3 -3 -3 -2 -2 -1 -1 -1 -1 -1 0 0 0 -1 -1 0 1 2 3 5 7 8 7 6 4 1 -2 -4 -5 -7 -9 -8 -6 -3 0 2 2 2 2 4 4 4 0 -2
-1 -1 -1 -0 0 1 1 1 2 2 2 1 1 1 1 0 -0 -1 -1 -2 -3 -3 -3 -3 -3 -4 -4 -4 -4 -3 -3 -2 -2 -2 -1 -1 -0 -1 -1 -0 0 1 2 3 6 8 8 7 5 1 -3 -5 -6 -9 -11 -12 -9 -5 -1 4 3 2 2 3 8 8 5 -0 0
-0 -0 0 0 1 1 1 1 1 1 0 -0 -0 -0 -1 -1 -2 -2 -3 -4 -4 -4 -4 -3 -3 -3 -4 -4 -4 -4 -3 -2 -2 -1 -1 -1 -1 -1 -1 -0 0 1 2 4 8 10 10 8 3 -2 -5 -5 -7 -9 -12 -12 -7 -2 4 7 4 3 3 7 9 5 1 1 3
0 1 1 1 1 1 0 -0 -0 -1 -1 -1 -1 -1 -2 -2 -3 -3 -4 -5 -5 -5 -4 -4 -3 -3 -3 -4 -4 -4 -3 -2 -1 -0 0 0 0 -0 -1 -0 1 2 4 6 10 12 13 10 1 -4 -6 -6 -7 -9 -10 -8 -3 3 7 7 4 6 9 12 6 1 1 5 4
1 1 1 1 0 -0 -1 -1 -1 -2 -2 -2 -2 -2 -2 -3 -4 -4 -5 -5 -5 -4 -4 -4 -4 -3 -2 -2 -3 -2 -2 -0 -0 0 1 1 0 -0 -0 2 5 8 8 6 7 11 13 9 -1 -5 -6 -6 -7 -7 -5 -1 4 7 8 6 8 13 15 11 2 2 5 9 5
0 0 0 0 -0 -1 -2 -2 -2 -2 -2 -2 -2 -3 -3 -4 -4 -4 -5 -5 -5 -4 -4 -4 -4 -3 -3 -2 -2 -2 -1 -0 0 0 0 0 0 2 4 9 13 13 10 4 3 7 10 5 -3 -5 -5 -6 -6 -3 1 5 8 8 8 10 15 15 11 2 0 3 7 6 2
-0 -0 -0 -0 -1 -1 -2 -2 -2 -2 -2 -2 -2 -3 -3 -4 -3 -3 -4 -5 -5 -5 -4 -3 -3 -3 -3 -4 -3 -2 -1 -1 -0 0 1 1 3 7 11 16 14 11 8 5 7 9 7 1 -4 -5 -4 -5 -1 4 7 8 9 10 11 14 13 8 2 -1 2 4 4 1 -1
-1 -1 -1 -1 -1 -2 -2 -2 -2 -2 -2 -2 -2 -3 -3 -3 -3 -3 -3 -5 -5 -5 -5 -3 -2 -3 -4 -4 -3 -2 -1 -1 -0 1 2 4 7 11 14 14 9 8 10 14 15 12 6 -2 -3 -3 -1 2 7 9 10 10 10 10 9 7 3 1 0 2 4 3 1 0 1
-1 -1 -1 -2 -2 -2 -2 -2 -2 -2 -2 -2 -2 -2 -2 -2 -2 -3 -4 -5 -5 -4 -3 -3 -3 -3 -4 -3 -2 -1 -1 -1 -0 2 4 6 8 10 11 8 5 9 18 26 20 12 5 2 1 2 5 8 10 11 11 10 8 4 0 -1 0 1 2 4 3 2 2 3 2
-2 -2 -2 -2 -2 -2 -2 -2 -2 -2 -2 -2 -2 -2 -1 -1 -2 -4 -5 -5 -4 -3 -2 -2 -3 -4 -4 -2 -1 -1 -1 -1 -0 2 4 5 6 6 7 9 13 19 24 24 13 7 6 7 6 7 8 11 12 12 9 6 1 -1 -1 2 3 3 3 2 2 2 3 4 4
-2 -2 -2 -2 -2 -2 -2 -2 -2 -2 -1 -1 -1 -1 -1 -2 -2 -3 -4 -4 -3 -2 -1 -1 -3 -4 -4 -3 -2 -2 -2 -1 -0 1 3 6 5 7 13 24 31 29 22 12 4 2 4 7 5 6 9 16 21 17 9 -1 -1 1 3 4 4 3 2 1 2 3 4 5 5
-2 -2 -2 -2 -2 -2 -2 -2 -2 -1 -1 -1 -1 -1 -1 -2 -3 -3 -3 -2 -2 -1 -0 -0 -2 -3 -3 -3 -4 -3 -2 -1 -0 1 3 6 5 13 27 44 39 26 11 2 -3 -3 -0 4 4 9 18 28 25 15 4 -1 1 3 4 3 2 1 1 1 2 3 4 4 4
-3 -2 -2 -1 -2 -2 -2 -1 -1 -0 -0 -0 -1 -1 -2 -3 -4 -4 -3 -2 -1 -1 -1 -1 -1 -1 -2 -3 -4 -4 -3 -1 -1 1 3 5 6 20 38 50 31 12 0 3 4 1 -0 3 8 16 23 24 13 4 -0 1 3 3 2 1 0 0 1 2 3 3 4 3 4
-2 -2 -2 -2 -2 -2 -2 -1 -0 -0 -0 -1 -1 -2 -3 -4 -5 -4 -4 -2 -2 -2 -2 -2 -1 -0 -1 -3 -4 -4 -3 -3 -3 -2 0 3 8 23 37 38 16 12 23 46 40 28 16 9 13 15 15 10 3 0 -0 1 1 0 -0 -1 -0 0 1 2 3 4 4 3 3
-2 -2 -2 -3 -3 -2 -2 -1 -1 -1 -1 -2 -2 -2 -3 -5 -6 -5 -4 -3 -2 -3 -3 -4 -2 -0 -1 -3 -4 -4 -4 -3 -4 -4 -2 1 9 21 27 19 4 27 58 70 54 40 27 15 11 8 7 5 3 1 -0 -1 -1 -1 -1 -0 0 1 2 3 3 3 3 3 3
-2 -2 -3 -3 -3 -3 -2 -1 -1 -1 -2 -1 -1 -2 -4 -5 -5 -4 -2 -2 -3 -4 -5 -6 -4 -2 -1 -2 -3 -4 -4 -4 -4 -4 -3 -1 6 13 16 7 1 32 65 63 43 33 27 20 14 11 9 8 5 2 0 0 1 1 2 2 3 3 4 4 3 2 1 1 2
-2 -3 -3 -3 -2 -2 -2 -1 -1 -1 -1 -2 -2 -3 -4 -4 -2 -1 -1 -3 -4 -5 -6 -7 -6 -4 -2 -1 -3 -4 -5 -5 -3 -3 -2 -2 2 8 11 6 3 27 50 46 28 22 22 25 23 20 17 14 10 6 5 4 4 4 3 4 4 4 4 3 2 1 1 0 1
-3 -2 -2 -2 -2 -2 -2 -1 -1 -2 -2 -2 -3 -4 -4 -2 0 0 -1 -3 -5 -7 -8 -9 -7 -4 -2 -0 -3 -5 -6 -5 -3 -3 -2 -2 1 6 10 9 8 23 36 31 18 13 15 18 21 20 19 17 14 11 9 6 4 4 3 3 2 1 1 1 1 1 1 0 -0
-3 -2 -2 -2 -2 -2 -2 -2 -2 -2 -3 -3 -4 -3 -2 -0 0 0 -1 -3 -6 -9 -11 -11 -9 -5 -1 0 -2 -4 -5 -5 -3 -3 -2 -2 -2 2 6 10 12 23 31 24 13 7 5 6 9 11 12 12 10 8 6 4 3 2 1 -0 -1 -1 -1 -0 1 1 1 0 -1
-3 -2 -2 -2 -2 -2 -2 -3 -3 -3 -3 -3 -3 -3 -1 1 1 -0 -2 -3 -6 -7 -9 -10 -8 -4 -1 1 -0 -2 -3 -4 -3 -2 -2 -3 -4 -2 1 8 16 24 27 17 12 7 3 2 4 5 6 7 6 5 5 4 4 3 2 1 0 -0 -0 -0 0 0 0 -0 -1
-3 -2 -2 -2 -2 -2 -3 -3 -3 -3 -2 -3 -3 -2 -1 1 -0 -1 -2 -3 -4 -4 -5 -6 -6 -3 -1 2 2 1 -0 -1 -2 -3 -3 -3 -4 -4 -2 3 15 24 25 10 11 9 6 4 4 5 5 5 5 5 5 4 4 3 2 1 0 -0 -1 -1 -1 -1 -1 -2 -2
-3 -3 -2 -2 -2 -2 -3 -3 -3 -2 -2 -2 -2 -1 -1 0 -0 -0 -1 -2 -4 -5 -6 -6 -5 -4 -2 -1 1 2 3 2 -0 -2 -3 -2 -3 -3 -3 -1 9 22 25 5 7 7 6 5 5 5 5 4 3 2 2 1 0 0 -0 -1 -1 -2 -2 -3 -2 -2 -3 -3 -3
-3 -3 -3 -2 -2 -3 -3 -3 -3 -2 -2 -2 -2 -1 -1 0 0 -0 -1 -3 -5 -7 -8 -8 -7 -6 -5 -4 -3 -0 2 4 3 1 -0 -1 -1 -1 -2 -4 1 18 25 4 4 3 2 2 3 3 3 3 2 1 0 -0 -0 -1 -1 -2 -2 -3 -3 -4 -4 -4 -4 -3 -3
-4 -3 -3 -2 -2 -3 -3 -3 -2 -2 -2 -2 -2 -1 -1 -1 -1 -2 -3 -4 -5 -7 -7 -7 -7 -6 -5 -4 -4 -2 0 3 3 3 2 1 1 1 -0 -3 -3 13 23 9 3 0 -0 -1 -1 -0 1 1 1 0 -0 -1 -1 -2 -2 -3 -3 -4 -4 -4 -4 -4 -4 -3 -3
-4 -3 -3 -2 -2 -3 -3 -3 -2 -2 -2 -2 -2 -2 -2 -2 -3 -3 -3 -3 -4 -4 -5 -5 -4 -4 -3 -3 -3 -3 -1 1 2 3 3 2 2 2 2 -0 -2 7 18 22 3 -2 -1 -3 -3 -3 -2 -1 -2 -2 -3 -4 -4 -5 -5 -5 -5 -5 -4 -4 -4 -4 -4 -3 -2
-4 -4 -3 -2 -3 -3 -3 -3 -3 -3 -3 -3 -3 -2 -2 -3 -4 -4 -3 -2 -2 -3 -4 -4 -3 -3 -3 -3 -4 -4 -3 -2 0 1 2 2 2 1 2 2 -0 2 12 33 6 -4 -4 -3 -4 -4 -3 -3 -4 -5 -6 -6 -7 -7 -7 -6 -5 -4 -4 -3 -3 -3 -3 -2 -2
-5 -4 -3 -3 -3 -4 -4 -3 -3 -3 -3 -4 -3 -3 -3 -4 -4 -4 -4 -3 -3 -4 -4 -4 -4 -4 -4 -4 -5 -5 -4 -3 -1 -0 1 1 0 -0 -0 1 -0 -0 8 32 14 -1 -8 -5 -5 -6 -7 -6 -6 -6 -6 -6 -6 -6 -5 -4 -3 -3 -2 -2 -1 -1 -1 -2 -2
-4 -4 -3 -3 -4 -4 -4 -3 -3 -3 -4 -4 -3 -3 -4 -4 -5 -6 -5 -5 -4 -5 -5 -6 -5 -5 -4 -5 -5 -4 -3 -2 -1 -1 0 0 -1 -1 -1 -1 -2 -3 2 19 20 8 -5 -8 -4 -5 -7 -8 -6 -5 -4 -4 -3 -3 -2 -1 -1 -0 -0 -0 -0 -0 -1 -1 -1
-4 -4 -3 -3 -4 -4 -4 -3 -3 -3 -4 -3 -3 -3 -3 -4 -5 -6 -6 -5 -4 -4 -5 -6 -6 -5 -5 -4 -4 -3 -3 -2 -1 -1 -0 0 0 1 1 0 -2 -5 -5 2 13 13 6 -5 -3 -3 -3 -5 -4 -3 -2 -1 -0 0 1 1 1 1 1 0 0 -0 -1 -1 -2
-3 -3 -3 -4 -4 -4 -4 -4 -3 -4 -4 -3 -3 -3 -3 -4 -5 -5 -4 -4 -4 -4 -4 -5 -5 -5 -4 -4 -3 -3 -2 -2 -1 -1 0 1 2 3 3 2 -1 -4 -6 -8 -1 6 9 4 -4 -4 -2 -1 -2 -1 -1 -0 0 1 1 1 1 1 0 -0 -1 -1 -2 -2 -2
-2 -3 -3 -4 -4 -4 -4 -3 -4 -4 -4 -3 -3 -3 -3 -3 -3 -3 -3 -4 -4 -4 -4 -4 -4 -4 -4 -3 -3 -3 -3 -3 -2 -1 1 2 2 3 3 2 0 -2 -4 -6 -6 -2 2 4 -3 -6 -5 -2 -0 0 0 0 -0 -1 -1 -2 -2 -1 -1 -2 -2 -3 -3 -4 -4
Height
3024 3021 3018 3015 3013 3010 3008 3005 3003 3000 2997 2995 2992 2990 2987 2985 2983 2981 2978 2976 2973 2971 2968 2966 2964 2962 2960 2958 2956 2955 2953 2951 2950 2948 2946 2945 2944 2942 2941 2940 2939 2938 2936 2935 2934 2933 2932 2931 2931 2930 2929 2929 2928 2928 2927 2926 2926 2925 2925 2924 2924 2923 2923 2923 2923 2923 2923 2922 2922
3022 3020 3017 3014 3011 3009 3006 3004 3001 2998 2996 2993 2990 2988 2985 2982 2980 2978 2975 2973 2971 2968 2966 2963 2961 2959 2957 2955 2953 2951 2950 2948 2946 2945 2943 2942 2941 2940 2938 2937 2936 2935 2934 2933 2931 2931 2930 2929 2928 2928 2927 2927 2926 2926 2925 2924 2923 2923 2922 2922 2921 2921 2921 2921 2921 2921 2921 2921 2921
3021 3018 3015 3012 3010 3007 3004 3002 2999 2997 2994 2991 2988 2986 2983 2980 2978 2975 2973 2970 2968 2965 2963 2960 2958 2956 2954 2952 2950 2948 2946 2945 2943 2941 2940 2939 2937 2936 2935 2934 2933 2932 2931 2930 2929 2928 2927 2926 2926 2926 2925 2925 2924 2923 2922 2921 2921 2920 2920 2920 2919 2919 2919 2919 2919 2919 2919 2919 2919
3019 3016 3014 3011 3008 3005 3002 3000 2997 2995 2992 2989 2986 2984 2981 2978 2976 2973 2970 2968 2965 2963 2960 2958 2955 2953 2951 2949 2946 2945 2943 2941 2939 2938 2936 2935 2934 2933 2932 2931 2931 2930 2929 2928 2927 2926 2925 2924 2924 2924 2923 2923 2922 2921 2920 2919 2919 2918 2918 2917 2917 2917 2917 2917 2917 2917 2917 2917 2917
3018 3015 3012 3009 3006 3003 3001 2998 2995 2993 2990 2987 2985 2982 2979 2976 2973 2971 2968 2966 2963 2960 2957 2955 2952 2950 2948 2946 2943 2941 2939 2938 2936 2934 2933 2931 2931 2930 2929 2928 2927 2927 2926 2925 2924 2923 2923 2922 2922 2921 2921 2920 2920 2919 2918 2917 2916 2916 2916 2916 2915 2915 2915 2915 2915 2915 2915 2916 2916
3016 3013 3010 3007 3005 3002 2999 2996 2994 2991 2988 2986 2983 2980 2977 2974 2971 2969 2966 2963 2960 2958 2955 2952 2950 2947 2945 2942 2940 2938 2936 2934 2932 2931 2929 2928 2927 2926 2926 2925 2925 2924 2923 2923 2922 2921 2921 2920 2920 2920 2919 2918 2918 2917 2916 2916 2915 2914 2914 2914 2913 2913 2913 2913 2913 2913 2914 2914 2915
3014 3011 3008 3006 3003 3000 2997 2995 2992 2989 2986 2984 2981 2978 2975 2972 2969 2966 2963 2961 2958 2955 2952 2949 2947 2944 2941 2939 2937 2934 2932 2931 2929 2927 2926 2924 2924 2923 2922 2922 2921 2921 2921 2920 2920 2919 2919 2919 2918 2918 2917 2917 2916 2916 2915 2914 2913 2913 2912 2912 2912 2912 2912 2912 2912 2912 2912 2913 2913
3013 3010 3007 3004 3001 2999 2996 2993 2990 2987 2985 2982 2979 2976 2973 2970 2967 2964 2961 2958 2955 2952 2949 2946 2944 2941 2939 2936 2933 2931 2929 2927 2925 2923 2922 2921 2920 2920 2919 2919 2919 2918 2918 2918 2917 2917 2917 2917 2916 2916 2916 2916 2915 2915 2914 2913 2912 2911 2911 2911 2912 2912 2912 2911 2911 2911 2911 2911 2912
3011 3008 3006 3003 3000 2997 2994 2991 2988 2986 2983 2980 2977 2974 2970 2967 2964 2961 2958 2955 2952 2949 2946 2943 2941 2938 2936 2933 2930 2928 2925 2923 2921 2920 2918 2917 2917 2916 2916 2916 2916 2916 2916 2916 2916 2915 2915 2915 2915 2915 2915 2914 2914 2913 2912 2912 2911 2911 2911 2911 2911 2911 2911 2911 2910 2910 2911 2911 2911
3010 3007 3004 3001 2998 2995 2992 2990 2987 2984 2981 2978 2975 2971 2968 2965 2961 2958 2955 2952 2949 2946 2944 2941 2938 2935 2932 2930 2927 2925 2922 2920 2918 2916 2915 2914 2914 2913 2913 2913 2913 2913 2913 2913 2913 2913 2914 2914 2914 2914 2913 2913 2912 2911 2911 2911 2911 2911 2911 2911 2910 2910 2910 2910 2910 2910 2910 2911 2911
3008 3005 3002 2999 2996 2994 2991 2988 2985 2982 2979 2976 2972 2969 2966 2962 2959 2956 2953 2950 2947 2944 2941 2938 2936 2932 2930 2927 2924 2922 2919 2917 2915 2913 2912 2911 2911 2911 2911 2911 2911 2911 2911 2911 2911 2912 2912 2913 2913 2913 2912 2911 2911 2911 2910 2911 2911 2910 2910 2910 2910 2909 2909 2909 2909 2910 2910 2910 2910
3007 3004 3001 2998 2995 2992 2989 2986 2983 2980 2977 2974 2970 2967 2964 2961 2957 2954 2951 2948 2946 2942 2940 2936 2933 2930 2927 2925 2922 2919 2917 2915 2912 2911 2910 2909 2909 2909 2909 2909 2909 2909 2910 2910 2910 2911 2912 2912 2912 2911 2911 2910 2910 2910 2910 2910 2910 2909 2909 2909 2909 2909 2909 2909 2910 2910 2910 2909 2910
3005 3002 2999 2996 2994 2991 2988 2985 2982 2979 2975 2972 2969 2965 2962 2959 2956 2953 2950 2947 2944 2941 2938 2935 2932 2929 2926 2923 2920 2917 2915 2913 2911 2910 2908 2908 2907 2907 2907 2907 2908 2908 2908 2909 2909 2910 2911 2911 2910 2909 2908 2908 2908 2908 2908 2908 2908 2908 2908 2908 2908 2908 2909 2909 2909 2909 2909 2909 2909
3004 3001 2998 2996 2992 2989 2986 2983 2980 2977 2974 2970 2967 2964 2961 2957 2954 2951 2948 2946 2942 2940 2936 2933 2930 2927 2925 2922 2919 2916 2914 2912 2910 2909 2908 2907 2907 2907 2907 2907 2908 2908 2908 2908 2909 2910 2910 2909 2908 2906 2906 2906 2906 2907 2907 2907 2907 2907 2908 2908 2908 2908 2909 2909 2909 2908 2908 2908 2908
3003 3000 2997 2994 2991 2988 2985 2982 2979 2976 2972 2969 2965 2962 2959 2956 2953 2950 2947 2945 2941 2939 2936 2932 2930 2927 2924 2921 2919 2916 2914 2912 2911 2909 2908 2907 2907 2907 2907 2908 2908 2909 2909 2909 2909 2909 2909 2907 2905 2904 2904 2905 2905 2906 2906 2906 2907 2907 2907 2907 2908 2909 2909 2908 2908 2907 2907 2907 2906
3003 3000 2996 2993 2990 2987 2984 2981 2977 2974 2971 2967 2964 2961 2958 2955 2952 2950 2947 2944 2941 2938 2935 2932 2929 2927 2924 2922 2919 2917 2915 2913 2911 2910 2909 2908 2908 2908 2908 2908 2909 2909 2909 2910 2909 2908 2906 2905 2903 2903 2903 2904 2904 2905 2905 2906 2906 2907 2907 2908 2908 2908 2908 2907 2907 2906 2906 2906 2906
3002 2999 2996 2993 2989 2986 2983 2980 2976 2973 2969 2966 2963 2960 2957 2955 2952 2950 2947 2944 2941 2938 2935 2932 2930 2927 2925 2922 2920 2917 2915 2913 2912 2911 2910 2909 2909 2909 2909 2909 2909 2909 2909 2909 2908 2906 2904 2902 2901 2902 2902 2903 2903 2904 2905 2905 2906 2907 2907 2908 2907 2907 2907 2906 2906 2906 2906 2906 2905
3001 2998 2995 2992 2988 2985 2982 2978 2975 2971 2968 2965 2962 2960 2957 2955 2952 2950 2947 2944 2941 2938 2936 2933 2930 2928 2925 2923 2920 2918 2916 2914 2912 2911 2911 2910 2910 2909 2909 2909 2909 2909 2908 2907 2905 2903 2901 2901 2901 2901 2902 2902 2903 2904 2905 2905 2906 2906 2907 2906 2906 2906 2906 2906 2906 2906 2906 2905 2905
3001 2997 2994 2991 2987 2984 2981 2977 2974 2971 2967 2965 2962 2960 2957 2955 2952 2950 2947 2944 2941 2939 2936 2934 2931 2929 2926 2924 2921 2919 2917 2915 2913 2912 2911 2911 2911 2910 2910 2910 2910 2909 2907 2905 2903 2901 2900 2900 2901 2901 2902 2902 2903 2904 2905 2905 2906 2906 2906 2906 2906 2906 2906 2906 2906 2906 2905 2905 2904
3000 2996 2993 2990 2986 2983 2980 2976 2973 2970 2967 2964 2962 2960 2957 2955 2953 2950 2947 2945 2942 2940 2937 2935 2932 2930 2927 2924 2922 2920 2918 2916 2915 2914 2913 2912 2911 2911 2911 2910 2910 2908 2906 2904 2902 2901 2901 2901 2901 2901 2902 2902 2903 2904 2905 2905 2905 2905 2906 2906 2906 2906 2906 2906 2906 2906 2905 2905 2904
2999 2996 2992 2989 2986 2982 2979 2976 2972 2969 2966 2964 2962 2960 2958 2956 2953 2951 2948 2946 2943 2941 2938 2936 2933 2931 2928 2925 2923 2921 2919 2917 2916 2915 2914 2913 2912 2911 2910 2910 2909 2907 2904 2902 2901 2901 2901 2901 2901 2901 2902 2903 2904 2904 2904 2904 2905 2905 2906 2906 2906 2906 2906 2906 2906 2906 2905 2905 2904
2998 2995 2991 2988 2985 2981 2978 2975 2972 2969 2966 2964 2962 2960 2958 2956 2953 2951 2948 2946 2944 2941 2939 2937 2934 2931 2929 2926 2924 2922 2921 2919 2918 2916 2916 2915 2913 2911 2911 2910 2907 2906 2904 2903 2902 2901 2901 2901 2902 2902 2903 2904 2904 2904 2904 2904 2904 2905 2905 2906 2906 2906 2906 2906 2906 2906 2905 2905 2904
2998 2994 2991 2988 2985 2981 2978 2975 2971 2969 2966 2964 2962 2960 2958 2956 2954 2951 2949 2947 2944 2942 2940 2937 2935 2932 2930 2927 2926 2924 2922 2921 2919 2918 2917 2916 2914 2913 2911 2910 2907 2906 2906 2906 2905 2903 2902 2902 2904 2904 2905 2904 2903 2903 2903 2904 2904 2905 2906 2906 2906 2906 2906 2906 2906 2906 2905 2905 2904
2997 2994 2991 2987 2984 2981 2977 2974 2971 2969 2966 2964 2962 2960 2958 2956 2954 2951 2949 2947 2945 2943 2941 2938 2936 2933 2931 2929 2927 2926 2924 2922 2921 2920 2918 2917 2916 2915 2913 2911 2909 2909 2911 2912 2908 2906 2904 2904 2904 2904 2904 2903 2903 2904 2904 2904 2905 2906 2906 2906 2906 2906 2906 2906 2906 2906 2905 2905 2904
2997 2994 2991 2987 2984 2980 2977 2974 2971 2969 2966 2964 2962 2961 2959 2956 2954 2952 2950 2948 2946 2943 2941 2939 2936 2933 2931 2930 2928 2927 2926 2924 2922 2921 2920 2919 2918 2917 2915 2912 2910 2912 2916 2915 2911 2907 2906 2905 2904 2904 2904 2904 2904 2905 2905 2905 2906 2906 2906 2906 2906 2906 2906 2906 2906 2906 2906 2905 2904
2998 2994 2991 2987 2984 2981 2977 2974 2971 2969 2967 2965 2963 2961 2959 2956 2954 2952 2951 2948 2946 2944 2942 2939 2937 2934 2932 2931 2929 2928 2927 2925 2924 2922 2921 2921 2920 2919 2917 2915 2912 2915 2919 2916 2912 2909 2907 2906 2906 2906 2905 2905 2906 2906 2906 2906 2907 2907 2907 2907 2907 2907 2907 2907 2907 2906 2906 2905 2904
2998 2995 2991 2987 2984 2981 2978 2975 2972 2970 2967 2965 2963 2961 2959 2957 2955 2953 2951 2949 2947 2945 2942 2940 2937 2935 2933 2931 2931 2929 2928 2926 2925 2924 2923 2922 2922 2921 2919 2917 2914 2916 2919 2917 2914 2911 2910 2910 2909 2908 2908 2907 2907 2907 2907 2908 2908 2908 2908 2908 2908 2908 2908 2907 2907 2906 2906 2905 2904
2998 2995 2991 2988 2985 2981 2978 2975 2972 2970 2968 2966 2963 2961 2959 2957 2956 2954 2952 2950 2948 2946 2943 2941 2939 2936 2935 2933 2931 2930 2929 2928 2927 2926 2925 2924 2924 2923 2921 2919 2917 2918 2919 2918 2916 2915 2914 2912 2911 2911 2911 2910 2910 2909 2909 2909 2909 2909 2909 2909 2909 2908 2908 2908 2907 2907 2906 2905 2905
2999 2995 2992 2988 2985 2982 2978 2975 2973 2970 2968 2966 2964 2962 2960 2958 2956 2955 2952 2950 2948 2946 2944 2942 2940 2938 2936 2934 2933 2931 2930 2929 2928 2927 2926 2926 2926 2925 2923 2921 2920 2921 2921 2919 2917 2916 2915 2914 2913 2913 2912 2911 2911 2910 2910 2910 2910 2909 2909 2909 2909 2909 2908 2908 2908 2907 2906 2906 2905
2999 2996 2992 2989 2985 2982 2979 2976 2973 2971 2968 2966 2964 2962 2961 2959 2957 2955 2952 2951 2948 2946 2945 2943 2941 2939 2937 2936 2934 2932 2931 2931 2930 2928 2927 2927 2926 2926 2925 2924 2923 2924 2923 2920 2919 2918 2917 2916 2915 2914 2913 2913 2912 2911 2911 2911 2911 2910 2910 2910 2910 2909 2909 2908 2908 2907 2906 2906 2905
3000 2996 2993 2989 2986 2982 2979 2976 2974 2971 2969 2967 2965 2963 2961 2960 2957 2955 2953 2951 2949 2947 2945 2944 2942 2941 2939 2937 2935 2934 2932 2931 2931 2930 2929 2928 2927 2927 2927 2926 2925 2926 2925 2922 2921 2920 2919 2918 2917 2916 2916 2915 2914 2913 2913 2912 2912 2911 2911 2911 2910 2909 2909 2908 2908 2907 2906 2906 2905
3001 2997 2993 2990 2986 2983 2980 2977 2975 2972 2970 2968 2966 2964 2962 2960 2958 2956 2954 2952 2950 2948 2946 2944 2943 2942 2941 2939 2937 2935 2934 2933 2932 2931 2930 2929 2928 2928 2928 2928 2927 2927 2927 2924 2923 2922 2921 2920 2919 2918 2917 2916 2916 2915 2914 2913 2913 2912 2911 2911 2910 2910 2909 2908 2908 2907 2906 2906 2905
3001 2997 2994 2990 2987 2984 2981 2978 2976 2973 2971 2969 2967 2965 2963 2961 2959 2957 2955 2952 2950 2948 2946 2945 2944 2943 2941 2940 2939 2937 2935 2934 2933 2932 2931 2931 2930 2929 2929 2929 2928 2929 2929 2925 2924 2923 2922 2921 2920 2919 2918 2917 2916 2916 2915 2914 2914 2913 2912 2911 2911 2910 2909 2908 2907 2907 2906 2906 2905
3002 2998 2995 2991 2988 2985 2982 2979 2976 2974 2972 2970 2967 2966 2964 2962 2960 2957 2955 2953 2951 2949 2948 2946 2945 2944 2942 2941 2940 2939 2937 2936 2935 2934 2933 2932 2931 2930 2930 2929 2929 2931 2930 2926 2925 2924 2923 2921 2921 2920 2919 2919 2918 2917 2916 2915 2915 2914 2913 2912 2911 2910 2909 2908 2907 2906 2906 2905 2905
3003 2999 2996 2992 2989 2986 2983 2980 2977 2975 2972 2970 2968 2966 2964 2962 2960 2958 2956 2954 2952 2951 2949 2947 2946 2945 2944 2942 2941 2940 2939 2937 2936 2935 2934 2933 2932 2931 2930 2930 2930 2931 2931 2927 2926 2925 2924 2922 2921 2921 2920 2919 2918 2917 2917 2916 2915 2915 2914 2913 2911 2911 2909 2908 2907 2906 2905 2904 2904
3003 3000 2997 2993 2990 2987 2984 2981 2978 2976 2973 2971 2969 2967 2965 2963 2961 2959 2957 2956 2954 2952 2950 2949 2947 2946 2945 2943 2942 2941 2940 2939 2938 2936 2936 2935 2933 2932 2931 2931 2930 2931 2931 2930 2926 2924 2924 2923 2922 2921 2920 2920 2919 2918 2917 2916 2916 2915 2914 2913 2911 2911 2909 2908 2907 2906 2905 2904 2903
3005 3001 2998 2994 2991 2988 2985 2982 2979 2977 2974 2972 2969 2967 2966 2964 2962 2960 2958 2956 2955 2953 2951 2950 2948 2947 2945 2944 2943 2941 2941 2940 2939 2938 2937 2936 2935 2933 2932 2931 2930 2931 2931 2931 2927 2924 2924 2924 2923 2922 2921 2920 2919 2918 2917 2916 2916 2914 2913 2912 2911 2910 2909 2908 2907 2906 2905 2904 2902
3006 3002 2999 2996 2992 2989 2986 2983 2980 2977 2975 2972 2970 2968 2966 2965 2963 2961 2959 2957 2956 2954 2952 2951 2949 2948 2946 2945 2944 2943 2941 2941 2940 2939 2938 2937 2936 2934 2933 2932 2931 2930 2931 2931 2929 2925 2922 2923 2923 2922 2921 2920 2919 2918 2917 2916 2915 2914 2913 2912 2911 2910 2909 2907 2906 2905 2904 2903 2902
3006 3003 3000 2996 2993 2990 2987 2984 2981 2978 2976 2973 2971 2969 2967 2965 2963 2961 2960 2958 2956 2955 2953 2952 2950 2949 2947 2946 2945 2944 2943 2942 2941 2940 2939 2938 2936 2935 2934 2933 2931 2930 2930 2930 2930 2928 2925 2922 2921 2921 2920 2919 2918 2916 2916 2915 2913 2912 2911 2911 2910 2909 2908 2907 2906 2905 2904 2903 2902
3008 3005 3001 2998 2994 2991 2988 2985 2982 2979 2976 2974 2972 2970 2968 2966 2964 2963 2961 2959 2957 2956 2955 2953 2951 2950 2949 2947 2946 2945 2944 2943 2942 2941 2940 2939 2937 2936 2935 2934 2932 2930 2929 2929 2929 2929 2928 2925 2921 2920 2919 2918 2916 2915 2914 2913 2912 2911 2910 2909 2908 2907 2906 2906 2905 2904 2903 2902 2901
3009 3006 3002 2999 2996 2992 2989 2986 2983 2980 2977 2975 2973 2971 2969 2967 2966 2964 2962 2960 2958 2957 2955 2954 2952 2951 2950 2948 2947 2946 2945 2944 2943 2942 2941 2940 2938 2937 2936 2934 2933 2931 2930 2929 2928 2928 2927 2926 2923 2921 2919 2918 2916 2915 2913 2912 2911 2910 2909 2908 2907 2906 2905 2904 2903 2903 2902 2901 2900